CAPE
1405 1209 1635 1647 1668 1884 2210 1879 2102 2103 2248 2265 2464 2367 2203 2006 1942 1970 2151 2804 1851 1041 1603 1356 877 903 545 652 784 1335 1597 1756 1878 2004 2135 2395 2691 2825 2939 2881 2688 2646 2488 2338 2229 2296 2174 2223 2158 2218 2203 2014 2316 2205 2092 2050 2040 1826 1909 1842 1879 1655 1489 1657 1638 1897 1796 1694 1981 2077 2197 2228 2249 2390 2279 2204 2168 2094 2030 2051 2052 1871 1821 1824 1718
1463 1202 1241 936 1148 1371 1676 1519 1217 1737 1924 1886 1774 2183 2032 2109 2398 2851 2184 2251 2396 1940 1912 1169 1102 967 658 770 871 1165 1505 1684 1724 1868 2121 2309 2547 3082 2960 2826 2838 2628 2587 2390 2315 2205 2116 2123 2382 2364 2255 2250 2221 2309 2183 2094 1995 1880 2006 1792 1788 1795 1513 1624 1831 1603 1873 2013 2128 2238 2403 2226 2373 2336 2294 2272 2222 2155 2081 2014 2036 2002 1948 1856 1773
1267 1109 1212 1042 1226 1248 1239 1399 1302 1666 1728 1905 2265 2752 2998 2750 3066 2932 2950 2036 2107 1570 1583 1564 1072 945 1346 859 793 846 1231 1361 1445 1671 1850 2012 2292 2681 2959 2778 2845 2796 2496 2576 2502 2422 2430 2407 2350 2343 2398 2303 2314 2332 2276 2217 2108 2044 1742 1833 1816 1593 1699 1750 1858 1891 2002 2051 2179 2330 2306 2284 2326 2323 2207 2123 2125 2164 2170 2121 1986 1988 1983 1971 1897
1424 1213 1448 1728 1204 1016 1636 1492 1696 1828 2242 2502 2241 2482 2978 3057 3418 3501 2592 2701 2808 1853 1733 1420 1051 1184 951 898 1028 1028 952 1332 1433 1463 1525 1717 1987 2320 2591 2662 2864 2839 2637 2807 2555 2636 2724 2693 2571 2665 2560 2549 2499 2339 2247 2350 2227 2152 2084 2100 2082 1858 1980 1905 1971 2032 2022 2240 2357 2404 2341 2292 2283 2231 2074 2046 2068 2096 2148 2061 2062 1951 1984 2064 2052
1950 1820 2590 2009 2227 1844 2000 2266 2404 2794 2560 2849 2972 2015 2295 2195 2011 2786 3061 2302 1960 1895 1885 784 882 1072 851 921 1051 1079 1016 1450 1405 1313 1275 1427 1552 1914 1982 2527 2506 2946 2862 2848 2760 2722 2714 2604 2566 2560 2410 2469 2500 2419 2480 2339 2524 2518 2379 2364 2349 2365 2379 2317 2200 2240 2263 2363 2435 2432 2327 2317 2293 2221 2144 2054 2044 2018 1997 2018 1960 2062 2060 2018 1932
1739 2549 1584 1711 2214 1791 2048 2966 2701 3324 3538 2809 2232 2218 1684 1960 2039 1847 3196 2860 1473 1649 1958 837 1322 1247 786 1096 1134 1083 728 643 1146 1244 1361 1512 1608 1546 1686 2057 2223 2463 2593 2875 2836 2827 2743 2704 2679 2681 2744 2686 2610 2712 2651 2653 2629 2737 2774 2473 2490 2607 2635 2585 2539 2564 2608 2633 2699 2746 2802 2632 2299 2223 2319 2233 2156 2144 2107 2058 2036 2055 2066 2068 2024
2408 3002 2905 2022 2279 2520 2538 2618 3296 3354 3031 2975 2976 1921 2744 2255 2670 2337 2569 2216 1796 1847 919 1207 1441 1542 1327 1102 1063 1332 890 673 952 1420 1629 1663 1647 1698 1689 1831 1598 2022 2238 2412 3062 3044 3029 2840 2944 3021 2976 2930 2876 2867 2899 2921 2943 2956 2958 3050 2994 2860 2859 2928 2888 2823 2866 2928 2947 3025 3106 3132 3093 2948 2788 2750 2699 2661 2479 2344 2320 2300 2229 2137 2151
3054 3496 2849 2659 2155 2323 3041 2766 3125 3253 2680 3008 3959 2529 3121 3034 3258 2948 2759 2432 2956 1247 1818 1578 827 813 695 809 1055 1325 1004 817 834 782 1367 1757 1743 1836 1870 1870 1867 1742 2492 1939 2132 2646 3239 3339 3312 3264 3142 3103 3069 3139 3232 3254 3297 3307 3216 3199 3172 3295 3298 3036 2956 3114 3200 3279 3262 3182 3224 3344 3398 3345 3320 3302 3270 3182 3109 3032 2929 2775 2648 2577 2437
3802 4225 3200 2105 2347 2588 2516 3104 2805 3776 3027 3349 3164 3337 1821 2756 3131 3239 3398 2716 2145 1586 1098 1010 1143 1297 1064 1176 1123 1809 940 1902 833 935 1328 1042 1500 1991 2118 2237 2445 3166 2901 2098 2043 1879 2544 3304 3641 3624 3503 3442 3381 3442 3467 3547 3518 3463 3440 3485 3413 3250 3257 3413 3565 3560 3477 3395 3479 3603 3542 3451 3496 3556 3596 3546 3546 3532 3482 3542 3342 3286 3243 3098 2938
3979 3764 3012 2734 2892 2814 2699 2899 3094 3437 3404 3226 2326 2761 2757 2348 2440 2917 3228 2089 2021 1638 824 750 1083 819 912 1104 1197 1607 1334 1212 1659 3166 952 1043 944 1135 1689 2103 2611 2935 3212 2749 2426 2197 1902 2727 3521 3849 3852 3756 3706 3634 3759 3826 3831 3780 3734 3569 3604 3642 3637 3698 3584 3552 3623 3670 3625 3728 3780 3839 3907 3902 3829 3718 3719 3782 3868 3814 3736 3603 3545 3432 3429
4041 3874 3250 3266 2648 2849 3256 3381 3854 3531 3146 3380 3031 2476 2335 2468 2608 2954 2542 3199 2052 1902 1350 2034 685 680 662 595 915 1192 1458 663 1038 1687 886 887 936 1259 1135 1232 1493 1782 2638 2921 2753 2556 2294 1854 2142 2640 3232 3975 4142 4314 4262 4171 4144 4205 4084 4094 4074 4052 3966 4011 4060 4083 4064 4125 4158 4135 4192 4181 4148 4222 4161 3983 4037 4038 4008 3970 3943 3812 3569 3731 3679
3406 3149 3209 2948 2570 2991 3077 3573 3436 3249 2600 3442 2679 2494 2399 2632 2937 2205 2330 3100 3388 1718 1473 1740 1521 1265 2758 695 952 960 1035 1719 983 1087 1678 575 774 1134 851 1272 1242 1236 1202 1523 2847 2775 2502 1766 2102 1968 2278 2513 3462 4308 4568 4691 4600 4670 4540 4460 4198 4176 4110 4154 4067 4266 4173 4321 4472 4380 4321 4347 4239 4156 4242 4278 4245 4150 4099 4032 4012 3963 3889 3912 3850
3584 2883 2795 3797 4012 2985 3338 3269 3367 3911 3532 3119 3167 3039 3486 4124 3625 3452 3648 3101 2278 1860 987 1519 1402 642 1475 1356 896 1127 972 1529 999 1046 730 599 572 822 789 980 1008 1379 1132 1192 2551 2789 2512 1941 1993 2004 2138 2422 2587 3374 3796 3903 4227 4282 4311 4570 4683 4376 4324 4452 4344 4383 4399 4472 4560 4514 4439 4399 4408 4467 4412 4342 4276 4232 4195 4120 4064 4031 4004 3972 3882
3887 3696 3405 3497 3688 3084 3188 3229 3829 3849 3329 3570 3566 4502 3472 3537 3099 2540 3809 2619 2274 1608 1280 1244 1155 1503 1414 1270 1495 1393 1208 960 928 1082 752 545 604 705 771 763 1027 1182 1225 1174 1513 2056 2285 2308 2474 2790 2584 2558 2627 2778 2782 3109 3660 4048 4211 4667 4814 4686 4851 5011 4626 4685 4582 4544 4570 4567 4547 4442 4380 4437 4442 4385 4299 4272 4198 4079 3968 3923 3913 3894 3836
3342 3803 3593 3444 3576 3289 3655 3484 3828 4399 4035 3646 3960 2830 3704 3029 2592 3260 2463 3155 3444 872 757 1088 1295 1708 2304 1955 978 894 1091 1495 1373 1066 724 425 354 385 730 778 896 976 1060 1105 1273 1583 2054 2071 2559 2910 3169 3110 3109 3076 2560 2714 2605 3577 3654 3804 4198 4777 4807 4921 4937 4815 4664 4488 4452 4256 4132 4164 4150 4114 4099 4064 4054 4061 4048 4014 3978 3943 3885 3860 3789
3056 3597 3706 3582 3427 3579 2706 2457 3231 4022 3444 3291 3383 3380 3628 3743 3125 3070 3261 2160 1366 772 1712 884 1556 1627 1618 1801 1555 1640 894 683 1116 1241 672 468 510 142 613 554 576 730 1092 972 1219 1545 1648 1697 1928 2366 2484 2182 2451 2634 3366 3190 3821 4770 5052 4729 3843 3593 4022 4723 4551 4189 4041 3916 3808 3659 3620 3687 3785 3828 3861 3990 4102 4168 4132 4047 3956 3887 3808 3762 3772
2992 3351 3286 3240 3306 3210 2386 2170 3520 3755 3439 2639 3361 3158 3321 3263 2441 4046 2192 2209 2517 1392 1623 896 1164 1790 1776 2422 1115 984 1044 1265 911 1541 1188 532 446 209 616 254 680 561 505 920 1216 1582 1883 1477 1598 1758 1736 2028 2415 2590 2547 3353 4305 5484 5906 6033 5536 3982 3758 4219 4239 3894 3573 3384 3362 3481 3629 3734 3810 3902 4006 4042 4054 4131 4084 4000 3848 3716 3611 3582 3613
2831 3120 3266 3523 3146 3086 3104 3687 3420 3766 3786 3527 3390 3197 2830 2713 2919 3137 1772 2583 3058 2310 1307 2374 922 2159 2643 1593 1018 994 732 1560 1660 684 766 2303 1049 38 17 504 814 821 985 950 499 1026 1692 1521 2129 2165 2392 2324 2390 2714 3457 5957 6346 6028 5089 5058 4699 4681 4058 3932 3523 3168 3300 3368 3589 3775 3892 4041 4020 3990 3986 3930 3935 3954 3839 3583 3395 3366 3408 3045 2645
2790 2914 3451 3487 3196 3105 3064 3175 3115 2666 3764 2575 2145 2674 2404 2982 2339 2891 2702 4507 3236 2306 1933 2375 1274 1634 1774 1893 2525 2523 1182 1436 1042 3416 989 833 1761 859 708 646 693 637 917 967 940 745 1232 1685 2088 1889 2366 2423 2833 3744 3684 3898 4145 3900 3720 2590 2587 3170 3432 3028 3013 3069 3321 3840 3995 3847 3923 3980 4025 4034 3902 3813 3637 3573 3433 3369 3303 3039 2422 2298 1813
2808 2954 3391 3489 3358 3212 3228 3230 3423 2522 3265 2828 3300 2410 2586 3784 3118 2782 4424 4130 3371 2364 2426 2849 2537 2516 3466 2365 2659 1898 975 1358 1646 1221 1303 1594 997 1335 114 500 657 590 864 937 811 923 1040 1387 1488 1953 2109 2698 3729 3508 3576 3434 3259 2994 3372 2582 2830 3300 3656 3198 3022 2991 3654 3772 3895 3940 4046 4097 3958 3692 3554 3641 3570 3565 3366 3101 2516 2172 1961 1778 1177
2798 2703 3381 3462 4124 3489 3928 3774 3208 2420 4221 3737 2389 2457 2605 3361 3230 3328 2713 2716 2811 3680 3644 2611 2171 1925 3297 2070 2612 1824 1650 1593 812 908 1521 1330 1543 1230 531 611 1074 461 940 843 1025 993 869 932 1400 2007 2982 3483 3353 3802 3792 4024 3884 3290 3268 2729 3174 3604 3775 3159 2944 3545 3358 3526 3731 3930 3981 3898 3659 3587 3656 3682 3547 3232 2838 2346 2018 1694 1268 1058 621
3125 3040 3329 3759 3580 3605 3720 3170 2890 2986 2903 2896 2204 2340 2963 3439 3227 3150 3193 3104 4354 3810 1886 2608 3064 2342 2389 2734 1533 2264 1648 1844 1201 1244 1452 1350 1231 1163 1487 348 934 668 1536 1053 1034 1006 696 1239 1716 2560 3258 2901 3207 3556 3658 3519 4479 3807 3121 2976 3230 3419 3935 3006 3033 3379 3296 3443 3475 3754 3824 3546 3536 3615 3515 3352 2948 2486 2234 1896 1661 1046 728 520 328
3014 3180 3296 3523 3295 3759 3398 3526 3141 3489 3355 2855 2396 2818 3002 2957 3147 3768 3835 3148 2757 3374 3221 4360 3379 2357 2591 2840 2227 2362 1264 1825 1482 1242 1530 1990 1766 1671 1430 1678 856 1064 944 600 870 855 834 1260 1621 2486 3298 3231 3181 2879 3580 4155 3499 3539 2755 2822 2844 3424 3896 3198 2788 3058 3363 3388 3388 3392 3428 3447 3479 3189 2943 2601 2230 1948 1711 1421 1039 701 353 287 219
2721 3025 3183 3135 3234 3074 3300 3216 3271 2685 3026 3104 2931 3153 2825 2838 3462 3625 3761 4038 3808 4408 3546 2958 2720 3540 2901 2277 2123 2418 2068 1190 1084 1592 1702 1651 1379 1372 1662 1918 1655 1297 1115 164 252 842 1108 1281 2098 3207 3330 3327 2999 3284 4205 4016 3508 2995 2542 2590 2860 3557 3764 3251 3023 3032 3320 3315 3211 3084 3045 3152 2775 2217 1981 1692 1632 1758 1151 834 512 368 238 367 342
2674 2849 2783 2925 3035 2857 3095 2928 2902 2905 2718 3197 2788 3193 2434 3263 3456 3130 2941 2834 2889 3424 3097 2811 3387 2813 2353 2472 2268 1850 1490 944 1162 1098 1936 2426 1184 1166 2287 2262 2280 2457 1498 1030 637 946 963 1969 2178 2352 3011 3466 3046 3814 3755 3710 3442 3176 2640 2980 3086 3708 3736 3135 2876 3041 3246 3208 3036 2883 2772 2617 2191 1598 1288 1498 2058 2023 1209 637 383 190 165 73 369
2784 2671 2514 2450 2847 2778 3270 2712 2590 2951 3384 3196 3590 3352 2649 2893 2939 3321 3258 2862 2589 2753 2978 3435 3212 2872 2666 2588 2354 1923 1886 1228 1034 1220 1488 1290 1571 2238 1974 1967 2401 2497 2738 1472 1367 865 1203 2300 2377 2307 2369 2568 2961 4373 3347 3092 3037 2321 2595 2974 3192 3644 3762 3093 2984 2966 3134 3094 2879 2739 2591 2594 1885 1548 1542 1995 2163 2137 1638 1176 721 392 33 72 412
2692 2577 2387 2249 2662 2828 3037 2386 2859 2830 3229 3010 3892 4085 3419 2899 3031 3140 3830 2779 3344 3541 3342 3423 3243 2733 2666 2204 3269 2284 2029 2105 1282 1298 2066 2145 2264 1908 1678 1984 1954 2807 3000 2982 2591 1174 1433 1402 2583 2851 2587 2919 3151 2947 3665 2756 2638 2722 3158 3197 3124 3677 3704 3298 2806 2864 2930 3001 2764 2579 2360 2266 1856 1615 1742 2128 2242 2160 1962 1606 1248 767 448 226 0
2606 2751 2536 3004 2618 2716 3070 3038 3067 2943 3082 3031 3577 3813 3389 2586 3303 3820 2626 3107 3110 3578 3617 3162 2988 2816 2844 3544 2486 2082 2445 2750 2147 2458 2390 2734 2702 3063 3919 2600 1902 2566 3220 3018 3206 2706 2688 2524 2823 3169 3066 3339 3444 2586 3832 3458 2730 2826 2758 3303 3194 3596 3515 3427 3112 2869 2968 3108 2913 2744 2201 1984 1701 1804 1950 2129 2298 2261 2089 1821 1618 1229 742 373 414
2528 2616 2709 2577 2677 2963 2538 3164 3289 3288 3367 3528 3459 3452 3444 3281 4014 3976 2956 2671 2453 2599 3674 3436 3215 3306 3007 2924 2688 2962 2494 2926 2619 2575 2410 2055 2404 2495 2415 2428 2307 2795 3337 2480 3072 2860 2798 2627 2574 3008 3778 3682 3869 3338 3275 3064 2849 2779 2597 3491 3301 3350 3428 3444 3336 2961 2988 3169 3029 2926 2759 2026 1766 1935 2110 2202 2320 2345 2208 2022 1761 1501 994 582 78
1963 2635 2303 2120 2807 3710 2395 2512 3077 3223 3305 3454 3379 3576 3593 3544 3186 3760 3558 3387 3410 3413 3480 4136 3523 3063 3455 2983 3051 2660 2540 2974 2598 1780 2359 2304 2242 2040 3343 3727 2594 2666 2736 2606 3166 3352 3028 2694 2418 3061 3559 3836 3776 2951 3272 4240 3141 2593 2620 2645 3514 3231 3332 3432 3320 3084 3079 3243 3072 2991 2996 2308 2122 1947 2101 2290 2366 2358 2258 2067 1891 1646 1263 746 444
1883 1930 2096 2042 2956 2955 2415 2670 2925 2947 2939 3086 3164 3376 3582 3426 3305 3121 3325 3164 3221 2728 3386 4180 3991 3312 3113 2822 4020 3168 3177 2847 2876 2214 2740 3149 2390 2382 2586 2632 2623 2592 3730 3580 2821 2575 3511 3293 3323 3576 3240 2681 3662 3288 2797 3124 2966 2829 2947 2808 3167 3662 3474 3462 3373 3102 3061 3297 3166 3033 3151 2511 2302 2205 2178 2121 2217 2254 2191 1886 1944 1751 1470 879 393
1393 2572 1902 2119 2596 2481 2558 2583 2553 2667 2730 2840 2908 3055 3639 3381 3186 2996 2756 2968 3469 3278 3489 3969 3616 3278 2805 2903 3481 3566 3732 3997 3147 3444 3106 3550 2910 2709 3063 3262 3632 3592 2842 3649 3230 3012 3333 3473 3626 3808 3369 3233 2689 3111 3323 3232 3502 3304 3216 2999 2996 3683 3720 3591 3350 3006 3035 3323 3218 3088 3226 2724 2392 2389 2383 2128 1924 1966 2027 1738 1683 1810 1546 1016 439
1308 2275 1863 2118 2217 2314 2464 2517 2351 2197 2351 2468 2730 2671 3298 3280 3033 2958 2668 2866 3228 3409 3636 3402 3296 3127 3414 3003 3464 3607 3369 3318 3414 3247 2943 2767 2245 1741 1652 4081 3842 2568 3000 3134 3039 2854 3176 4049 3948 3429 3541 3204 2867 3323 3238 3274 2849 3160 3230 3017 2827 3195 3274 3187 3170 3099 3176 3332 3228 3137 3235 2848 2454 2496 2510 2374 2052 1897 1793 1614 1444 1750 1689 1174 567
1268 1479 2036 2077 1930 2100 2027 1963 1960 2053 2150 1982 2317 2493 2828 2760 2842 3022 3107 2885 2806 2981 3150 2983 2774 2805 3088 3341 3180 3005 3234 2660 2628 2770 2645 2266 1824 1947 1756 2065 2095 2278 3212 3090 2808 2828 2999 3443 3594 3906 3476 3303 3066 3126 3139 2938 2602 3028 3108 2826 2982 2880 3206 3326 3222 3103 3188 3277 3204 3153 3197 2899 2516 2513 2580 2505 2259 2099 1940 1807 1370 1663 1735 1267 788
1151 1351 1237 1497 2091 1891 1922 1914 1841 1840 2157 2254 2024 2359 2575 2533 2721 2597 2344 2873 2918 2994 3197 3161 3016 2814 2554 3025 3392 3139 3013 2928 2744 2557 2460 2328 2000 1703 1767 2068 2117 2282 2670 2974 3026 3367 3320 3038 3544 3710 3509 3027 2875 3219 3462 3292 3057 2958 2899 3021 3177 3232 3102 3600 3362 3276 3201 3198 3179 3115 3115 2867 2538 2454 2537 2542 2380 2248 2072 1947 1848 1531 1628 1320 1099
1065 1336 1290 1172 1322 2107 1871 1929 1875 1754 2324 2227 2189 1992 2424 2513 2482 2445 2345 2377 2592 2766 2806 2917 2976 2891 2845 2657 2502 2785 2718 2414 2331 2494 2340 1919 1778 2065 2435 2531 1968 1507 2941 4095 3375 2607 3243 3312 3043 2897 2715 3141 3751 3752 3512 3282 3026 2779 2657 3322 3554 3214 3022 3296 3435 3327 3177 3220 3186 3116 3020 2735 2589 2518 2439 2496 2428 2309 2182 1981 1977 1790 1463 1402 1275
958 1037 1555 1247 986 1608 1990 2011 2569 2018 2506 2247 1985 1863 2188 2454 2451 2341 2207 2219 2546 2546 2578 2592 3116 2565 2394 2349 2465 2375 2245 2344 2446 2756 2400 2115 1871 1654 1613 1370 1837 2246 2510 2263 2240 2557 2208 2069 2266 3200 3785 3916 3532 3166 3028 3108 3144 3120 3614 3460 3223 2995 2936 2826 3146 3408 3085 3349 3165 3080 2899 2771 2636 2550 2384 2314 2370 2263 2195 1992 1945 1916 1548 1366 1250
1000 848 1060 1573 1539 1646 1624 1651 1936 2374 2233 2468 2023 1798 1692 1958 2410 2371 2264 2096 1957 2216 2518 2359 2377 2542 2578 2450 2240 2340 2256 2071 1994 1997 1854 1811 1897 1995 1790 1656 1827 2860 3260 3041 3008 2888 2987 2778 3118 2970 2722 2824 2948 3105 3300 3502 3704 3084 2565 2558 3064 3340 3163 3056 3682 3208 3251 3128 2938 2778 2727 2706 2626 2524 2412 2365 2188 2153 2049 1959 1862 1934 1842 1453 1385
919 872 748 1145 1898 1939 1697 1521 1552 1973 2148 1996 2272 2249 1882 1694 1542 1906 2103 2166 2118 1941 1882 1992 2195 2354 2308 2127 2091 2134 1977 2081 2266 2102 2000 2058 2054 2123 2172 2329 2669 2654 2486 2298 2487 3106 3479 3343 3244 3324 3298 3374 3448 3422 3400 3434 3629 3328 2485 2198 2064 2161 2958 3247 3221 3840 2913 2661 2614 2627 2524 2533 2512 2419 2384 2320 2184 1931 1759 1752 1832 1949 1975 1734 1527
876 819 937 749 1145 2090 1989 1670 1525 1677 1918 1922 1893 2273 2242 1982 1908 1842 1618 1700 2013 2002 1875 1713 1663 1708 1795 1828 1797 1776 1831 1812 1767 1759 1820 1843 2114 2118 1790 1401 1425 1467 1650 2182 2624 2850 2954 3007 2910 2921 2997 3281 3057 2356 1911 1945 1964 1910 1870 1903 1943 2109 2220 3463 4204 3413 2683 2762 2966 2742 2570 2443 2360 2269 2278 2234 2128 1990 1887 1878 1989 2073 2045 1891 1638
817 769 625 991 992 1099 1941 1855 1710 1735 1861 1876 1854 2067 2334 2108 1900 1936 2039 1742 1638 1831 1835 1624 1566 1587 1571 1607 1657 1631 1547 2473 2014 1910 1690 1816 1571 1861 2033 1986 2018 1992 1967 2048 2034 2063 2134 2232 2325 2469 2531 2425 2256 2178 2246 2117 1975 1877 1881 2370 2771 2767 2768 3376 3604 3255 3563 3408 2555 2384 2336 2105 2124 2162 2145 2153 2138 2075 1917 1924 2146 2154 2083 1903 1702
1238 1372 1420 621 925 974 1090 1690 1748 1729 1824 1946 2064 1887 2086 2320 2079 1794 1818 1908 1788 1593 1570 1496 1404 1506 1584 1528 1419 2100 2715 3576 3256 2089 1719 1896 2232 1592 1333 1923 1993 2082 2418 2711 2940 3017 3036 3228 3241 3107 2913 2768 2673 2521 2264 2202 2160 2140 2069 2115 2155 2125 2251 2683 2822 3288 3370 2976 2829 2000 1920 1933 2121 2160 2122 2086 2144 2098 2003 2050 2289 2212 2047 1911 1690
1368 1467 1451 1234 1238 714 931 1022 1416 1533 1495 1619 1911 1914 1878 2109 2232 2124 1853 1784 1797 1674 1336 1252 1260 1256 1289 1342 1261 1483 2068 2948 3981 3420 1789 1292 1328 1806 1884 2140 2617 2176 2175 2505 2570 2658 2836 2817 2761 2858 2897 2771 2582 2430 2304 2104 1896 1846 1969 1799 1503 3177 3169 2411 1891 1866 3046 3042 2216 2521 2496 2585 2261 2154 2153 2207 2286 2226 2067 2118 2168 2143 1981 1832 1672
1497 1588 1400 1440 1381 1381 1162 939 906 1113 1265 1322 1410 1652 1810 1869 2045 2141 2054 1914 1776 1695 1467 1085 1131 1213 1168 1073 969 846 528 362 231 1338 2479 1777 1107 984 1138 1460 1945 2886 2490 2162 2127 2526 2911 2908 2847 2850 2811 2706 2557 2472 2410 2285 2287 2235 1948 1605 1633 1592 1483 1490 1697 1380 1690 3632 2364 1930 1615 1656 2147 2453 2641 2642 2394 2271 2218 2085 2016 1978 1864 1772 1649
2012 1830 1762 1655 1507 1488 1371 1284 1434 1556 1086 1089 1182 1187 1312 1563 1773 1868 1899 1948 1880 1763 1698 1454 1192 1210 1275 1201 1044 818 413 1095 2176 1250 1241 1732 1450 963 786 814 952 1112 1347 1577 1498 1256 1099 1878 2285 2364 2516 2581 2508 2342 2119 1959 1795 1780 1869 2116 2438 2314 2022 1779 1707 1638 1752 1619 1898 2300 2417 2291 2007 1941 1935 2348 2390 2226 2044 1914 1899 1815 1684 1567 1483
2107 2138 2117 1920 1699 1520 1504 1430 1330 1342 1327 1470 1387 1097 1022 1148 1330 1516 1614 1778 1834 1788 1663 1518 1354 1254 1203 1209 1163 1065 907 638 369 273 633 1146 1120 1030 859 723 680 789 845 877 785 652 283 409 390 384 394 826 1110 1048 1118 1376 1796 1892 2036 1972 1926 2049 2214 2153 2047 1916 1875 2510 2420 2359 2408 2311 2051 1778 1620 1733 1625 1828 1833 1773 1686 1564 1405 1340 1367
2410 2285 2087 1988 1940 1818 1622 1475 1362 1292 1223 1199 1314 1460 1484 1214 915 1010 1251 1445 1588 1642 1636 1482 1291 1084 1028 1049 1024 976 934 868 758 374 166 440 1064 991 801 667 555 357 553 528 562 368 146 64 509 551 572 552 118 68 151 280 854 1329 1562 1673 1903 2167 2290 2402 2531 2656 2766 2843 2802 2619 2329 1956 1583 1466 1522 1626 1658 1740 1732 1663 1408 1074 1019 1122 1230
2192 2224 2206 2094 1920 1764 1632 1530 1450 1391 1346 1250 1174 1184 1326 1604 1749 1467 953 988 1294 1385 1359 1378 1318 1151 918 856 887 886 849 816 736 640 827 582 310 928 1439 1301 1086 933 828 760 659 622 604 732 948 1057 1080 1244 1384 1217 839 480 481 596 1202 1753 1928 1972 1843 1758 1822 2106 2168 2175 2171 2162 2148 2100 2045 1880 1789 1757 1707 1828 1797 1614 1159 859 804 990 1110
1704 1778 1894 1989 1945 2018 1949 1786 1713 1580 1461 1391 1365 1282 1274 1350 1604 1866 1775 1540 1182 1082 1155 1098 1062 1035 911 742 767 919 963 964 1007 1065 982 841 857 749 786 1290 1842 2074 2038 1945 1716 1547 1454 1460 1526 1662 1876 1943 1912 1823 1681 1408 1118 892 823 1026 1242 1840 2135 2008 1829 1939 2069 2343 2426 2410 2308 2141 1882 1801 1654 1583 1478 1503 1458 1310 1187 978 883 925 997
1290 1296 1400 1744 1884 1935 2077 2027 1961 1928 1825 1737 1623 1456 1339 1471 1600 1762 1795 1644 1458 1335 1114 986 868 676 580 1025 1390 482 359 322 320 185 268 894 1182 1302 1274 1190 1127 1088 1045 1011 1039 1504 2098 2192 2204 2234 2210 2138 2123 2078 1999 1938 1782 1562 1320 1174 1048 812 760 759 883 871 895 874 846 738 654 587 535 720 1130 1616 1259 1219 1194 1182 1184 1008 930 889 881
817 1004 1212 1260 1298 1476 1562 1636 1611 1939 1891 1759 1839 1781 1615 1585 1687 1786 1870 1759 1414 1061 1076 1136 1079 995 853 1258 1460 1298 854 573 332 606 624 555 398 542 835 998 1024 981 904 786 700 656 620 602 712 924 1132 1387 1566 1641 1653 1653 1648 1710 1680 1538 1330 1170 1049 955 914 889 993 1058 999 863 768 735 580 347 576 1017 1236 1150 1119 1224 1101 974 881 861 882
Wind_Speed
10 12 13 14 16 17 16 18 17 18 18 21 21 21 22 24 25 25 26 24 22 19 21 21 20 21 19 18 18 18 18 17 18 18 18 19 21 22 22 23 23 23 24 24 24 23 24 24 25 24 25 25 24 23 23 22 22 22 22 23 24 25 25 25 25 27 26 25 24 23 24 24 24 24 25 26 28 29 30 31 33 33 34 35 36
10 11 12 13 15 17 17 18 17 18 19 22 22 21 23 24 25 25 24 21 22 22 22 22 19 20 20 18 18 17 16 17 18 18 18 18 20 21 23 23 23 24 24 25 25 25 25 25 25 26 26 26 25 24 24 23 23 23 24 25 25 27 27 26 27 27 26 26 26 25 25 25 25 26 27 28 29 31 31 32 34 34 34 36 36
9 10 11 13 15 17 18 18 19 20 19 22 22 21 21 22 22 23 21 22 24 22 21 23 21 19 19 18 17 17 16 17 16 16 17 18 19 20 21 24 24 24 25 26 26 26 26 25 26 25 27 26 25 25 24 24 25 25 25 26 27 28 27 27 28 28 28 27 26 26 27 26 27 28 29 30 30 31 32 33 34 34 35 36 36
10 11 12 13 15 17 18 17 19 20 20 20 20 19 21 21 21 20 20 21 21 21 21 17 19 21 18 17 17 17 16 15 15 16 16 17 17 18 19 20 24 25 26 27 27 27 26 26 26 26 26 26 26 25 25 26 26 27 27 28 29 28 29 29 29 30 28 26 26 27 28 28 29 30 30 31 31 32 33 34 34 34 35 36 38
12 13 12 13 16 17 18 18 19 17 18 18 16 17 17 18 20 20 21 18 20 20 19 17 17 18 14 15 15 15 14 14 14 14 15 15 16 17 18 19 20 25 27 27 28 28 28 28 28 27 27 26 26 27 28 28 29 30 30 30 30 30 30 30 30 29 28 28 28 28 29 29 30 31 32 32 32 33 34 34 34 34 35 37 39
14 15 13 14 16 17 16 16 16 15 15 14 16 17 16 17 20 19 21 19 19 19 20 17 17 17 12 14 14 13 13 11 12 13 14 14 15 16 17 18 20 20 21 27 27 27 28 28 28 28 27 27 28 29 30 30 31 32 31 31 32 32 31 31 30 29 29 29 29 29 30 30 31 32 33 33 33 34 35 35 35 36 37 39 40
17 15 15 16 17 16 15 15 14 13 14 15 15 18 17 17 19 20 20 20 20 18 16 14 13 11 13 13 13 13 13 11 10 11 14 14 14 16 16 18 19 20 21 20 23 26 27 28 28 28 28 29 30 31 32 33 33 33 33 33 32 32 32 31 30 29 29 29 29 30 30 31 32 33 34 34 34 34 35 35 36 37 39 40 40
16 15 14 15 14 14 15 13 12 13 14 15 15 18 18 18 18 17 17 17 17 17 12 14 13 9 11 12 13 12 12 12 11 11 12 12 14 15 16 18 19 20 20 20 19 20 27 27 28 28 29 30 31 32 34 34 34 34 34 33 32 32 32 31 30 30 30 30 30 30 31 32 33 34 34 35 35 36 36 35 36 38 40 40 41
13 12 12 13 13 14 15 14 14 14 15 16 16 18 17 19 18 16 16 17 17 18 14 13 12 12 11 12 13 12 12 13 13 14 12 12 14 15 17 19 19 20 19 20 19 18 22 27 27 29 30 31 31 33 34 34 34 34 34 33 33 32 31 31 31 31 31 31 31 31 32 32 33 34 35 35 36 36 36 35 37 39 40 40 41
11 11 11 12 13 14 14 14 14 14 14 15 17 18 17 15 17 18 17 16 16 16 15 15 14 12 10 11 13 15 14 12 11 14 12 14 16 15 16 18 19 19 19 19 19 18 17 22 27 27 30 30 31 32 33 34 34 34 33 33 32 31 31 29 30 30 31 30 31 31 31 32 33 34 35 35 35 35 35 35 36 38 39 40 42
10 10 10 11 12 13 11 12 11 11 11 13 14 15 15 16 17 19 18 18 18 17 16 11 10 9 10 11 12 12 15 14 15 11 14 15 17 18 15 18 18 18 17 19 18 17 17 18 20 23 26 31 32 32 32 33 33 33 32 32 31 30 30 30 30 30 30 30 30 31 31 32 32 33 34 34 34 34 35 35 36 38 39 39 42
8 9 10 11 11 11 11 11 9 10 11 12 13 13 14 15 17 17 17 18 16 16 12 10 10 9 9 13 11 11 12 15 15 15 16 15 17 15 14 17 18 19 18 16 16 17 17 17 19 22 24 27 32 32 33 32 31 30 30 29 29 29 29 29 29 29 29 29 30 29 30 31 32 32 32 33 33 34 35 35 36 37 37 38 41
8 8 9 10 10 10 9 9 9 9 9 11 11 11 12 13 14 15 15 16 15 14 13 8 9 11 11 11 10 12 13 13 13 15 15 17 16 16 17 14 19 19 18 12 14 16 17 17 19 21 23 24 26 31 33 32 30 29 28 28 27 27 27 28 28 28 28 29 29 29 29 29 30 31 32 33 33 34 35 35 35 35 36 37 38
7 7 7 6 7 7 6 7 7 8 9 10 11 9 9 10 11 13 14 14 13 13 10 8 11 9 10 10 10 11 13 14 16 13 15 16 16 17 16 16 15 17 17 16 13 15 15 17 17 20 21 23 25 24 25 26 26 27 25 25 26 26 27 27 27 27 27 28 28 28 28 28 29 29 31 31 32 33 34 34 33 33 33 34 35
6 7 6 6 6 5 6 6 6 8 7 9 9 7 8 9 11 11 14 13 13 12 9 8 9 9 7 8 9 9 12 13 16 14 13 13 15 16 16 14 15 14 13 14 14 12 16 16 16 17 19 22 23 22 23 22 21 23 24 24 23 24 25 25 26 26 26 26 26 26 25 25 26 28 29 30 32 32 33 33 32 31 31 30 31
6 6 5 4 4 5 5 5 6 6 6 6 7 7 8 9 9 10 10 11 12 12 9 8 6 5 8 8 9 8 11 12 14 15 10 12 13 16 16 15 13 13 10 14 15 15 15 15 14 14 16 19 21 19 21 19 19 21 21 20 20 20 21 23 24 24 23 23 23 23 23 24 25 27 28 29 30 30 31 31 30 28 27 26 25
5 5 3 4 4 3 5 5 4 5 4 5 7 9 9 10 9 8 8 10 12 11 10 8 5 6 6 7 9 9 10 13 13 13 9 8 11 16 14 12 8 10 10 13 17 14 13 13 13 14 17 19 19 20 15 14 14 14 14 16 15 16 18 20 20 20 20 21 21 22 23 23 24 25 26 26 27 28 28 28 27 25 24 23 21
5 4 3 3 4 5 4 5 5 4 5 5 7 8 10 8 9 8 9 11 9 10 12 10 8 8 6 7 6 8 9 12 10 11 12 10 12 nan nan 10 9 8 11 13 12 11 11 11 12 14 16 17 17 15 12 10 9 8 8 9 10 13 15 17 17 17 18 19 20 20 21 22 23 23 23 24 24 24 25 25 24 24 22 17 14
3 3 3 4 4 4 4 5 4 5 6 5 5 7 10 8 7 5 8 9 8 10 11 11 11 9 9 8 9 8 6 10 12 11 12 15 13 11 12 12 9 9 9 10 13 10 10 9 10 13 15 15 12 9 8 7 6 8 8 8 10 11 13 14 15 15 16 17 17 17 18 19 20 21 21 22 21 22 22 23 23 21 19 18 16
2 2 3 3 4 5 5 5 4 5 5 6 7 7 7 4 5 6 8 8 7 8 11 12 8 9 10 8 10 11 10 9 8 8 9 11 14 16 12 11 8 10 9 11 9 10 6 7 8 11 13 11 8 6 6 5 5 6 7 8 8 9 11 11 12 13 14 14 13 14 15 16 16 17 18 18 19 19 19 20 19 19 18 18 17
1 2 3 2 3 4 5 5 4 4 5 5 7 5 6 5 4 4 6 9 9 10 10 12 10 10 10 10 10 10 13 12 10 8 9 11 14 13 12 11 11 11 10 8 8 10 9 6 5 8 9 9 8 5 4 3 4 5 5 7 6 8 8 8 9 11 10 11 10 10 11 12 14 14 15 16 16 17 18 18 18 18 18 17 17
1 2 2 3 2 3 5 5 4 4 4 4 4 5 8 6 5 5 6 8 9 9 10 11 11 10 9 8 8 10 11 12 11 11 10 9 10 11 12 7 8 10 9 7 6 9 10 7 5 4 4 3 3 3 3 2 2 3 4 6 6 7 6 7 7 9 10 9 8 9 10 11 12 13 15 15 15 15 16 17 17 18 17 17 17
1 2 3 2 2 4 4 4 4 4 2 5 3 4 7 5 6 5 5 5 8 9 10 10 11 11 11 7 7 6 7 7 10 10 9 10 12 12 12 10 5 6 8 8 8 7 9 8 6 6 4 5 4 4 4 1 1 1 3 8 9 7 7 8 8 9 10 9 9 10 11 11 12 13 15 15 14 13 14 15 16 16 16 17 17
1 2 3 2 1 4 5 3 4 3 3 4 3 4 5 4 3 4 5 6 7 8 9 11 13 13 12 12 10 8 9 7 8 7 7 9 8 8 9 10 9 7 8 7 6 7 7 6 5 3 3 2 3 4 3 4 2 2 3 11 11 10 10 10 10 11 11 12 12 12 13 13 13 14 14 15 14 13 13 13 14 14 15 16 16
1 1 3 3 1 3 4 3 3 4 2 2 3 2 2 1 2 3 5 5 7 6 8 11 11 12 13 12 12 10 9 8 7 7 8 6 7 7 7 7 7 9 8 4 4 5 4 2 1 1 4 4 3 4 5 6 3 5 7 11 14 12 13 13 13 13 14 14 14 14 15 16 16 16 16 16 15 14 13 13 13 13 13 nan 15
1 1 3 2 2 2 2 3 3 3 1 2 3 2 1 1 2 5 5 5 6 6 6 9 11 12 12 12 13 12 9 11 7 6 7 9 9 7 7 9 6 8 7 6 5 2 3 1 2 4 6 6 4 3 7 6 6 5 10 11 13 15 14 15 15 16 16 15 15 15 16 19 19 18 17 17 16 14 13 13 13 12 nan nan 13
2 0 2 1 2 1 1 3 3 3 2 2 3 1 1 0 2 4 4 4 6 4 6 9 10 10 11 11 12 11 12 13 12 9 7 8 7 7 8 9 10 8 8 7 7 3 3 5 4 5 4 5 4 5 5 8 8 8 12 11 12 15 16 17 17 18 19 17 17 16 17 19 20 19 17 17 17 16 14 14 13 13 12 11 nan
3 2 2 2 1 1 0 2 2 3 2 2 2 3 2 1 1 2 4 4 5 7 7 7 9 10 10 10 9 11 11 11 11 9 7 6 7 8 8 6 6 8 7 7 7 6 4 6 6 5 4 3 4 4 4 7 9 9 13 12 14 14 16 18 19 19 22 21 19 19 19 20 21 21 20 18 17 17 16 15 14 13 12 10 10
4 3 3 4 2 1 1 1 2 2 2 2 2 3 2 1 0 1 3 4 4 6 8 6 8 10 11 10 7 8 10 10 7 6 6 7 7 6 5 4 4 5 5 6 5 5 7 7 5 4 3 3 3 4 4 7 8 9 11 14 16 15 18 21 21 20 23 25 23 22 21 21 21 22 22 20 19 19 18 17 15 14 13 11 nan
4 5 4 3 4 2 0 1 2 1 1 1 0 1 2 1 0 1 1 3 3 5 7 7 8 8 10 9 8 7 9 10 10 5 3 3 4 5 5 4 5 4 4 4 5 4 4 6 6 6 4 3 3 3 6 7 10 11 11 15 17 18 22 24 25 23 24 25 25 24 23 23 23 23 23 23 22 21 20 18 16 15 15 12 10
5 6 5 4 5 4 2 3 0 1 1 1 0 1 1 1 1 1 2 2 3 4 6 7 8 8 9 11 9 8 8 9 8 7 5 2 2 3 4 2 4 4 4 5 5 5 4 6 5 5 5 6 5 5 9 10 11 12 13 13 16 19 24 24 27 26 26 26 26 24 24 24 24 25 26 25 25 24 22 21 18 16 15 14 12
7 8 6 5 5 5 4 4 2 2 2 1 1 1 2 1 1 1 2 2 3 4 5 7 7 7 6 8 9 9 8 9 10 8 6 4 2 2 2 1 2 4 5 6 4 3 4 5 5 5 7 8 8 11 10 9 11 13 14 13 13 17 22 22 25 27 29 31 30 28 27 26 26 25 26 27 27 25 24 22 20 16 15 14 13
7 10 7 6 6 5 5 4 5 3 3 3 2 3 3 3 3 3 4 3 3 4 4 7 8 7 6 6 7 7 7 9 9 9 10 8 6 4 3 4 3 4 6 5 4 2 6 6 6 7 8 10 10 13 14 13 14 14 13 14 15 18 19 21 23 26 29 31 33 33 31 29 27 26 25 26 26 26 25 24 21 19 16 14 13
9 9 9 8 7 7 6 6 5 5 3 3 3 3 3 3 4 5 4 5 4 5 5 5 7 9 9 6 6 7 8 7 8 9 8 8 7 6 7 6 5 5 6 8 5 6 5 9 10 10 10 13 12 12 14 14 13 15 15 15 15 16 19 20 23 23 26 29 31 32 31 30 29 27 25 25 24 25 25 24 23 20 18 16 14
10 11 10 10 9 7 8 7 5 6 5 4 3 4 4 4 4 6 7 6 5 5 5 5 5 7 8 7 7 6 6 6 6 6 6 7 7 6 5 6 5 6 7 8 11 9 8 9 11 12 13 13 14 13 13 14 15 15 15 15 15 16 19 21 21 21 25 26 28 30 30 30 29 28 27 25 24 23 23 24 23 21 19 18 16
9 11 11 10 10 10 8 9 7 7 7 6 5 5 4 4 5 6 6 8 7 6 5 5 6 7 7 7 7 7 6 6 6 5 5 6 8 9 9 8 7 7 9 11 10 11 11 11 12 13 12 12 13 13 13 13 13 13 14 15 16 17 16 18 21 20 23 26 26 27 27 27 28 28 27 26 25 23 21 21 22 22 20 19 17
10 11 13 12 11 11 10 10 11 9 9 7 7 6 7 6 6 6 6 8 8 8 7 7 6 6 6 6 7 7 7 7 8 7 6 6 8 9 9 9 8 9 10 10 9 10 10 10 10 11 12 12 12 11 12 12 12 14 15 16 16 15 15 14 17 20 21 26 24 24 24 25 26 26 26 26 26 25 23 21 21 21 21 20 18
10 9 10 12 12 12 11 10 11 11 10 10 8 7 6 8 8 7 8 8 8 9 9 8 7 8 7 6 7 6 7 6 7 8 8 8 9 8 8 8 9 10 10 9 10 9 9 9 11 9 12 9 11 12 11 12 12 12 12 11 11 12 14 12 15 18 17 19 19 19 19 21 23 24 25 26 26 26 25 22 20 20 20 20 20
7 10 8 10 12 13 12 11 10 10 10 10 10 9 8 8 8 9 9 9 10 9 10 9 9 9 9 9 9 9 8 8 8 8 8 8 8 8 8 9 10 11 11 10 10 10 10 10 10 10 8 9 10 9 9 10 10 12 10 9 10 11 14 16 13 15 16 17 18 21 22 22 22 22 23 25 25 25 25 23 21 20 20 20 20
7 7 10 8 10 13 12 12 11 11 11 10 10 10 9 8 9 9 8 9 9 9 9 8 8 9 10 10 9 9 8 8 8 9 10 9 10 10 9 10 10 10 10 9 10 10 10 10 10 8 8 7 9 9 8 9 7 6 9 12 10 9 11 16 18 16 15 18 17 18 18 19 19 20 21 22 23 24 25 24 22 22 22 21 20
12 8 10 11 9 10 12 12 11 11 11 10 10 10 10 9 9 8 9 8 8 9 9 8 8 7 9 10 10 9 8 5 3 5 6 7 10 9 10 11 10 10 9 9 8 8 8 8 7 7 7 6 6 6 5 6 3 5 6 11 11 12 13 14 14 16 16 16 15 17 18 19 18 18 19 18 20 23 23 23 20 24 24 23 23
16 18 17 12 9 10 10 11 11 10 11 11 10 9 10 11 10 8 8 9 8 9 9 8 8 8 7 8 10 6 4 3 2 2 2 2 3 7 9 11 10 10 9 9 8 9 8 7 6 7 6 5 5 5 4 5 5 4 4 6 9 9 13 13 14 16 17 16 14 13 15 18 17 16 17 17 18 21 20 21 21 21 23 25 24
15 16 18 19 16 12 9 10 10 9 10 11 10 9 9 9 10 11 9 8 9 9 9 9 9 9 10 9 9 8 8 9 9 5 3 2 3 3 4 6 8 9 10 9 9 10 9 7 7 7 6 5 4 5 4 2 3 4 4 7 8 10 13 13 13 14 17 19 15 17 14 19 20 17 16 16 17 19 20 21 25 26 26 26 25
17 18 20 18 16 17 17 14 11 10 11 10 10 10 8 7 8 10 11 10 9 9 9 9 10 11 10 10 11 11 11 9 9 12 8 3 3 3 2 3 4 5 8 11 9 10 9 6 5 4 6 4 2 5 3 3 2 5 6 7 7 8 9 12 14 16 17 21 19 15 12 18 21 18 16 16 17 20 22 24 28 29 28 27 26
19 19 19 19 18 18 16 17 17 18 18 13 9 10 9 8 8 9 12 11 10 9 9 10 10 11 12 12 12 12 12 10 12 15 15 12 6 2 2 0 1 2 3 4 7 8 9 7 5 5 7 5 3 3 5 5 8 7 7 8 10 12 13 12 12 14 13 20 18 14 13 15 19 15 13 14 18 19 21 26 32 32 31 29 27
19 20 21 21 20 20 19 19 18 17 17 17 14 10 9 9 9 10 12 12 11 9 8 9 10 11 12 13 13 13 13 13 13 14 17 15 14 13 12 11 10 8 5 3 3 3 6 7 7 6 5 9 4 4 4 10 9 7 9 9 12 13 14 13 15 15 15 21 18 16 12 12 16 13 13 12 15 17 21 27 34 34 33 31 29
22 22 22 23 23 23 22 22 22 21 20 22 25 20 14 12 10 11 13 13 12 11 11 10 9 10 12 13 14 13 14 15 15 14 14 16 17 14 13 12 10 9 9 9 9 10 9 nan 8 6 5 6 7 nan 7 10 12 11 11 11 14 16 15 18 17 17 17 20 20 19 13 13 16 15 13 16 19 20 21 27 34 34 33 33 31
24 23 23 23 23 23 23 23 23 22 23 27 29 28 22 16 14 18 18 16 14 13 13 14 13 13 13 14 15 15 16 17 15 11 12 15 16 15 13 12 12 11 10 10 9 9 10 12 11 9 9 9 8 9 10 12 14 15 16 18 19 19 17 16 14 17 18 20 24 22 17 16 19 18 14 20 25 24 24 25 28 32 32 32 31
26 26 26 25 24 23 23 24 24 24 26 28 34 36 33 25 24 22 20 17 16 15 15 17 17 17 17 18 18 18 19 20 18 16 14 15 17 15 15 15 14 12 10 14 14 11 10 10 10 10 10 10 9 9 8 9 13 17 21 19 19 23 21 17 17 19 17 21 26 26 22 18 20 22 17 22 24 26 26 26 27 28 30 30 29
25 27 28 29 27 25 25 26 26 26 27 32 40 32 32 32 27 24 22 22 18 15 14 16 18 19 17 11 14 18 18 19 18 17 17 20 18 16 15 14 13 11 12 17 18 17 15 12 11 9 9 8 8 8 8 9 11 20 25 19 18 23 20 20 17 17 16 19 21 29 22 17 20 24 22 23 23 23 24 24 26 26 27 25 26
23 23 27 29 29 26 25 25 26 25 28 31 27 21 24 30 28 22 21 22 20 17 18 17 18 19 19 17 13 14 16 16 14 15 15 20 19 17 16 16 12 9 12 19 19 16 18 19 18 18 17 15 15 16 15 13 14 19 25 21 20 22 19 17 17 18 16 16 21 31 22 19 22 21 24 23 20 20 24 26 26 26 26 25 24
Wind_Direction
77 79 84 89 93 96 94 91 92 93 92 91 90 87 86 87 87 89 91 94 103 99 101 100 95 94 94 86 80 73 77 79 80 79 81 83 84 79 67 68 69 68 68 67 67 66 67 67 68 67 66 65 63 63 63 62 63 64 67 70 71 74 76 78 79 79 79 79 79 79 78 75 71 65 59 55 51 48 44 41 38 35 35 34 34
72 80 86 90 93 96 95 93 91 93 90 90 89 87 84 86 88 90 96 101 100 100 97 96 88 89 85 84 82 76 74 76 78 80 81 82 82 83 66 67 66 67 66 68 68 67 65 65 66 66 67 65 63 62 62 63 65 67 69 72 75 76 77 77 79 80 80 80 79 78 75 71 66 62 58 53 50 47 45 42 39 37 38 39 39
79 83 92 94 94 95 92 91 91 89 88 88 87 84 84 83 91 100 99 100 95 91 94 95 95 85 86 84 79 77 74 76 80 81 80 80 81 82 77 65 66 65 65 65 68 69 71 70 68 68 67 66 65 64 66 67 70 74 76 77 77 80 82 80 80 81 80 78 77 76 73 68 64 60 56 54 50 47 45 43 40 42 44 44 43
81 80 82 88 93 89 92 92 92 91 86 89 89 94 95 94 95 94 92 93 97 93 89 89 89 92 91 83 83 79 79 76 74 76 79 80 81 79 78 75 64 64 64 65 66 68 70 70 71 71 70 69 68 70 71 75 77 77 79 82 83 83 83 83 81 81 80 80 76 73 70 66 62 59 56 54 51 48 45 43 43 46 48 47 45
91 87 86 86 84 86 89 90 87 89 91 93 93 97 99 103 105 103 101 99 101 103 98 92 94 96 91 88 82 82 80 70 75 76 76 79 80 79 78 77 77 66 64 67 67 68 68 69 69 69 69 69 72 75 77 77 79 80 82 82 81 82 83 82 81 82 81 77 74 72 68 65 62 59 57 54 51 49 46 44 47 50 49 49 47
92 92 89 88 90 86 88 86 88 88 89 94 98 101 101 102 101 103 101 97 96 95 104 109 110 98 99 97 93 86 88 90 78 78 81 81 83 82 80 77 77 76 75 68 68 69 68 68 67 67 68 70 73 76 78 79 80 81 83 83 82 83 83 82 81 79 78 76 72 69 66 64 61 58 57 55 52 49 46 46 50 51 50 48 47
90 85 79 80 83 87 87 87 90 91 92 93 97 99 99 99 98 99 97 99 98 98 92 101 109 114 106 101 98 101 105 95 91 88 86 86 86 86 84 82 79 78 76 75 72 69 70 68 67 67 69 72 75 78 79 80 81 83 83 83 83 82 82 81 79 77 75 73 70 67 65 62 60 58 56 55 54 51 48 49 52 52 51 49 46
81 80 81 79 78 86 91 93 92 93 90 94 97 94 96 94 91 90 93 96 98 94 83 89 96 106 101 106 111 105 102 108 102 93 90 87 88 88 84 83 81 80 76 74 73 73 68 68 67 69 72 74 78 80 81 81 82 82 82 82 81 80 79 77 76 75 72 69 67 65 63 61 59 58 56 55 54 50 49 51 54 54 53 50 48
87 89 86 85 85 90 89 90 90 92 87 90 95 92 95 94 97 104 94 90 95 95 87 86 91 90 102 108 110 107 104 112 107 103 106 97 85 81 82 83 79 74 78 74 74 72 71 68 70 71 74 77 80 81 82 82 81 80 79 79 78 77 75 73 73 72 69 67 66 64 63 61 60 59 58 56 55 51 51 52 55 56 55 53 50
96 96 95 91 88 87 87 85 88 90 89 87 91 100 99 101 107 101 103 104 103 102 94 93 95 95 106 109 115 116 115 110 110 114 110 99 94 92 82 79 78 75 77 76 72 71 73 74 73 77 79 81 81 82 82 82 80 79 77 76 75 75 74 72 70 69 68 67 65 64 63 62 60 60 60 59 58 54 52 53 55 56 55 53 50
91 96 92 87 82 86 86 84 91 95 96 97 94 98 105 106 107 104 106 105 104 103 93 91 104 106 100 100 111 115 111 113 118 111 102 96 95 91 88 90 83 80 72 72 73 71 73 81 85 86 87 83 83 81 80 80 80 79 77 75 74 74 74 73 71 70 69 68 66 64 64 63 62 60 59 60 57 54 53 55 57 60 60 55 51
77 76 77 73 76 79 74 85 84 89 93 98 93 94 99 103 107 103 110 109 98 93 104 93 104 109 108 105 102 102 104 112 112 112 105 102 98 98 86 85 87 85 80 73 72 76 77 83 88 88 89 88 84 82 81 79 79 78 77 76 75 74 74 73 72 71 70 69 67 65 63 62 63 63 60 59 55 54 54 56 58 60 61 56 53
66 66 68 74 77 69 74 79 78 85 86 88 85 87 91 97 102 107 108 108 102 101 96 98 100 108 122 110 99 104 102 103 104 109 105 98 104 102 97 92 86 88 85 72 70 75 82 85 88 91 92 93 90 84 82 80 80 79 78 76 75 74 73 72 72 70 69 68 66 63 61 59 59 59 57 56 54 53 53 55 57 58 60 59 55
69 70 70 77 72 67 72 68 73 76 79 85 90 88 97 107 107 106 101 98 98 93 96 109 109 95 106 112 111 110 104 108 113 110 102 104 103 102 103 98 93 88 89 87 70 78 86 87 91 92 95 94 92 91 88 85 82 78 78 76 75 74 71 70 71 70 69 68 67 64 61 58 58 56 55 54 53 52 52 53 56 58 60 60 58
70 71 70 69 67 67 71 66 68 71 78 87 91 86 87 92 96 98 109 102 96 99 108 99 99 102 106 112 108 112 119 126 121 119 107 105 105 104 103 91 90 92 85 88 97 94 89 92 93 96 95 93 93 92 88 86 82 76 75 75 75 75 74 73 70 69 68 67 64 61 58 55 54 54 52 52 51 51 51 51 54 57 60 62 59
57 65 68 62 60 64 65 64 72 67 55 73 92 93 93 89 89 91 94 112 105 101 98 95 96 115 110 102 98 106 123 123 119 118 103 105 103 100 107 106 91 93 105 96 96 100 100 102 103 102 97 95 96 93 89 91 85 78 74 71 69 71 73 72 71 71 69 67 63 58 55 52 50 49 50 49 50 49 49 49 50 52 56 59 58
43 50 52 53 57 60 56 66 71 66 60 62 78 85 90 84 83 92 98 103 112 109 111 111 121 98 93 111 122 131 116 114 131 127 136 134 115 104 115 108 95 90 90 88 97 103 108 108 107 108 103 102 102 98 107 98 88 80 75 70 61 61 64 66 70 71 69 64 60 55 51 48 46 47 48 49 48 46 45 45 44 45 47 51 52
39 32 45 57 53 53 57 67 61 56 69 66 73 87 93 77 84 94 101 106 105 129 121 121 113 114 100 99 80 107 114 122 138 133 134 127 137 nan nan 105 95 86 101 109 113 110 108 114 115 106 106 104 106 120 112 101 98 86 68 64 51 53 59 60 64 70 68 64 57 53 51 47 43 43 41 42 43 39 39 37 36 37 37 31 25
35 36 34 42 54 60 59 70 62 60 69 75 82 77 89 76 79 103 108 106 119 118 121 119 131 129 134 125 119 109 110 137 133 137 147 140 137 140 135 117 110 110 95 109 114 132 117 122 106 111 111 109 115 123 113 113 89 70 44 43 41 46 50 57 57 61 66 63 54 48 46 44 39 38 36 34 32 32 32 33 30 22 18 19 20
27 50 52 33 48 58 60 63 67 63 75 74 73 76 96 108 73 83 101 110 115 118 122 129 128 123 128 150 147 146 139 139 130 139 137 143 145 145 146 140 142 118 107 101 126 123 113 126 120 115 118 126 141 143 111 101 87 73 61 36 40 39 42 48 48 51 56 59 50 42 39 38 33 28 27 26 25 23 24 25 21 17 16 17 21
60 56 87 64 67 54 62 61 64 82 91 65 82 82 88 72 76 96 106 107 114 120 131 128 140 138 146 143 152 148 148 140 144 162 146 159 150 154 148 151 154 148 151 134 121 133 134 154 102 114 136 150 157 151 136 119 82 70 50 38 22 33 23 31 40 40 40 49 47 31 29 29 25 20 18 18 18 16 16 17 18 17 15 16 20
117 76 86 83 69 61 59 64 81 89 106 80 79 93 91 76 74 75 87 108 118 125 129 128 132 134 143 137 150 149 155 152 154 159 150 154 154 151 146 155 155 138 141 162 135 137 141 155 144 154 172 168 158 187 180 129 99 58 31 8 1 11 360 5 25 25 25 29 28 21 15 18 18 15 10 8 11 12 15 16 17 17 13 11 14
162 99 110 86 79 84 69 64 77 82 88 85 75 74 72 66 81 108 98 100 117 133 138 139 142 137 137 136 128 135 140 151 140 151 152 152 165 159 161 158 129 143 143 140 145 151 129 137 171 192 176 206 192 210 220 224 338 209 312 347 350 356 343 346 6 11 9 0 6 7 4 4 7 7 2 359 4 12 15 15 18 17 13 8 8
151 129 104 91 80 83 93 63 63 70 62 76 73 85 77 69 64 99 113 114 129 143 153 151 148 143 142 131 121 120 128 133 133 146 144 148 164 158 153 150 162 143 129 144 139 141 144 168 188 205 197 230 200 240 260 286 311 321 279 336 346 346 340 339 353 1 354 347 355 358 354 354 354 357 357 352 356 10 13 11 12 16 13 8 7
85 72 87 79 55 54 90 51 53 65 73 60 73 68 34 291 60 79 110 123 125 140 146 139 135 133 125 135 133 129 114 117 143 142 139 156 161 161 155 168 157 143 135 153 132 154 143 256 195 201 250 241 234 253 283 309 319 336 325 331 341 345 335 336 347 347 343 342 346 350 352 348 350 355 357 351 352 2 9 3 3 10 14 nan 7
309 44 72 85 60 60 73 58 53 60 65 40 47 46 323 314 153 136 102 110 113 120 132 142 140 137 138 136 134 144 143 135 135 151 166 169 172 165 162 170 157 157 140 144 138 173 161 206 201 218 236 255 272 271 290 318 322 342 339 329 340 344 341 336 343 344 335 338 341 346 350 345 347 350 351 348 347 353 358 356 354 1 nan nan 8
257 219 83 139 34 78 35 50 56 53 46 41 62 17 345 337 189 141 142 138 136 134 139 153 152 147 140 136 142 144 151 145 158 163 194 202 178 173 189 180 170 177 168 152 152 158 152 180 205 232 252 259 261 291 300 309 329 345 324 321 332 344 341 338 339 341 330 335 340 343 347 345 343 347 351 344 343 345 349 349 349 353 1 8 nan
200 216 145 197 349 77 102 41 46 37 39 29 41 359 2 350 195 148 133 143 160 153 134 147 144 148 146 143 143 137 142 148 159 178 206 198 202 199 211 209 203 179 175 178 171 163 175 210 205 207 248 259 284 291 308 306 317 344 319 323 326 334 343 334 338 341 331 334 339 340 346 348 345 346 346 344 342 342 342 342 345 346 351 358 3
205 214 197 190 197 221 85 25 37 16 21 31 27 347 338 264 269 169 124 147 173 153 147 142 151 160 160 139 140 132 133 141 144 170 177 197 196 197 227 228 234 217 195 188 168 187 174 212 238 204 205 232 266 274 276 304 324 325 318 314 322 326 337 336 338 340 330 331 335 340 343 346 346 344 342 341 340 340 338 338 341 340 341 345 nan
208 228 223 198 193 191 250 159 29 354 331 30 72 329 313 295 128 134 124 157 177 162 152 157 152 154 165 169 155 145 152 156 140 150 143 185 180 186 198 221 255 234 220 214 172 193 185 191 241 240 219 219 245 252 295 306 328 326 311 308 316 323 334 335 336 339 333 330 334 338 343 344 345 343 338 336 336 335 334 335 334 335 332 333 339
225 229 244 221 217 215 217 192 187 315 285 320 64 209 274 271 219 187 171 181 156 148 154 161 151 149 160 174 179 181 168 165 167 179 158 190 147 158 205 263 250 254 247 236 212 180 224 212 219 224 238 255 258 263 279 300 311 312 302 306 308 324 328 325 332 336 332 332 334 340 343 343 342 341 337 333 334 334 335 332 333 332 327 325 325
213 233 246 244 231 233 210 199 214 237 252 280 300 220 212 221 238 213 173 182 168 164 166 156 148 152 155 169 169 182 177 182 182 193 190 180 212 166 157 231 254 265 264 253 253 157 210 232 217 208 220 237 246 264 269 275 282 299 296 299 299 308 312 313 326 332 331 331 334 339 343 344 344 343 340 336 337 338 336 337 342 341 337 331 325
221 232 246 245 247 242 235 216 226 224 229 231 222 216 216 182 195 206 190 199 187 178 185 156 158 174 183 170 170 172 187 192 184 183 189 189 186 189 211 244 269 254 265 269 270 204 209 241 249 241 228 239 242 252 254 260 270 283 297 302 306 305 308 312 314 325 329 330 332 336 341 345 350 351 348 342 341 341 341 344 351 356 355 349 341
230 234 243 238 239 249 239 237 217 229 249 241 229 229 215 198 184 200 199 212 201 190 188 168 158 167 176 180 176 180 185 181 183 182 188 185 203 204 199 217 239 253 260 271 271 262 241 241 246 242 248 256 255 265 265 270 274 280 286 294 300 306 311 312 310 317 330 330 332 335 340 346 352 357 356 352 349 345 346 348 354 0 1 359 357
234 238 242 242 242 239 241 243 238 224 237 249 240 235 221 209 202 196 198 211 216 204 199 182 173 181 177 185 182 180 185 185 182 181 185 184 205 227 219 231 241 237 252 270 262 255 250 249 261 257 263 261 268 268 265 272 280 286 289 292 301 305 309 316 316 318 328 333 333 334 340 346 352 357 359 359 357 354 352 351 352 356 1 3 8
234 237 245 250 241 244 243 238 246 234 235 234 235 234 233 225 210 203 197 205 211 213 206 197 194 197 193 186 184 191 187 182 181 184 184 184 183 199 218 227 237 241 252 263 269 266 263 260 254 263 262 259 265 275 279 278 282 284 293 300 301 305 313 318 324 326 332 341 339 337 342 347 353 357 360 2 5 4 3 357 352 354 0 6 5
226 238 243 246 252 247 244 242 239 240 243 243 233 223 220 222 221 213 203 205 214 213 210 208 204 203 192 195 189 192 190 189 190 205 203 203 199 198 198 207 225 226 229 246 257 267 266 257 252 259 267 268 274 272 278 280 283 290 296 304 309 310 311 320 323 331 335 348 345 345 349 354 357 1 2 5 7 10 14 11 1 356 2 4 6
216 233 246 248 256 258 253 249 241 238 243 250 248 230 222 223 225 214 214 210 209 219 216 207 201 208 211 203 196 201 196 194 187 198 210 207 209 206 205 209 217 228 238 239 243 245 256 263 272 254 260 268 265 277 282 291 299 297 297 308 307 309 308 309 317 321 324 331 340 346 354 359 2 4 4 4 6 9 15 15 6 1 4 5 7
226 230 245 255 256 265 266 265 261 251 247 250 253 249 237 229 227 222 219 218 218 215 215 215 211 212 213 212 210 206 201 205 208 213 217 216 217 219 233 234 232 236 237 243 249 255 260 259 258 272 270 269 284 277 281 294 299 310 315 303 302 309 307 317 324 327 329 341 350 352 353 354 353 356 0 1 2 7 13 15 10 5 5 7 8
268 250 256 270 260 265 273 272 273 268 264 260 257 258 252 246 241 230 223 225 225 224 222 218 213 212 212 212 210 210 209 206 210 210 222 219 226 225 225 229 232 234 230 235 240 247 250 252 261 256 270 273 256 271 277 269 264 274 303 311 314 309 312 312 322 327 332 340 344 346 347 345 352 357 356 356 360 4 8 12 11 5 5 5 9
238 248 268 283 283 278 273 278 276 271 270 268 266 267 265 260 255 243 239 236 234 236 233 227 227 225 220 216 214 214 217 208 197 213 217 226 230 227 223 235 236 239 237 239 245 248 246 249 239 252 251 244 254 256 254 271 301 328 296 288 295 306 311 313 313 317 329 339 343 337 336 342 343 347 345 346 350 354 1 3 3 6 2 2 5
233 236 226 236 283 289 279 274 275 271 261 257 266 300 291 271 266 263 253 248 244 245 246 238 231 234 232 227 221 220 217 215 208 206 193 194 225 236 233 238 241 242 244 247 251 257 260 258 263 263 251 256 270 282 291 300 308 284 266 281 292 298 296 307 308 314 324 333 333 330 334 331 339 339 339 352 346 346 350 352 1 356 359 358 360
231 231 238 228 223 238 279 276 268 261 256 254 280 292 301 304 275 264 266 256 249 249 249 249 241 237 233 234 231 218 209 207 215 214 210 206 219 222 223 245 255 257 251 255 256 260 264 266 266 268 273 272 286 296 301 314 301 311 309 294 306 294 295 298 303 300 309 324 328 324 326 324 328 337 345 351 344 341 347 356 355 355 356 355 356
233 231 234 235 232 232 235 239 244 247 248 262 284 286 293 297 283 262 255 254 250 247 245 245 242 240 237 237 237 236 234 230 219 232 237 232 233 240 237 231 246 279 281 275 267 258 262 265 261 277 277 298 323 295 308 297 324 278 287 283 289 293 292 293 296 302 307 306 319 320 328 314 325 336 340 348 344 342 350 349 346 350 352 353 353
233 232 230 234 234 231 237 241 237 235 233 234 260 277 285 292 297 275 251 254 252 244 242 239 239 238 238 235 232 233 232 232 237 238 240 235 233 253 279 264 191 235 253 277 288 282 275 273 279 279 297 291 286 304 307 295 278 282 277 279 282 284 288 290 297 293 296 301 307 314 317 312 310 322 338 340 338 337 339 338 342 346 349 348 351
229 232 232 231 231 229 226 227 236 241 238 233 239 246 259 278 288 273 247 255 259 258 255 247 239 236 237 237 235 231 231 229 230 233 243 246 242 238 232 230 228 211 200 213 223 229 257 271 276 286 291 286 315 303 298 275 273 279 279 281 280 276 276 288 293 297 295 293 305 303 300 299 305 318 328 334 316 322 324 330 336 341 342 343 346
227 228 229 227 228 228 227 227 222 222 233 233 231 235 234 234 231 249 239 239 245 251 257 259 255 247 240 237 236 234 234 234 236 238 237 243 246 244 241 239 240 241 245 245 252 259 267 nan 282 290 294 295 305 nan 301 296 300 298 294 287 281 278 276 274 274 283 282 292 295 292 299 297 293 300 315 318 310 310 308 322 333 336 337 337 341
226 229 228 227 226 227 230 229 226 221 220 217 220 227 234 231 233 238 228 224 228 235 244 247 250 250 247 243 239 236 235 236 235 237 240 242 246 251 253 248 242 243 250 269 285 281 280 282 287 295 296 309 322 311 305 300 294 291 283 278 277 275 271 271 280 278 285 289 294 294 290 292 294 297 301 298 304 311 308 312 326 330 331 334 336
230 229 228 226 225 226 228 232 231 228 226 223 219 219 225 234 239 239 240 233 228 230 236 241 242 243 243 245 245 242 240 239 238 237 236 240 241 247 255 259 258 254 254 262 285 307 314 318 325 330 332 333 335 337 328 321 300 284 274 274 283 283 280 282 283 283 290 288 289 297 297 296 296 298 301 300 306 306 310 314 315 324 328 331 333
236 233 228 226 225 225 227 230 233 230 229 235 242 243 248 258 259 251 252 253 242 232 240 251 252 251 249 250 249 247 247 246 253 256 256 256 254 254 257 262 266 272 271 270 269 280 309 325 330 328 318 304 299 298 297 300 304 291 288 293 293 285 292 298 294 294 288 286 293 293 294 304 295 297 300 291 292 296 304 306 311 315 321 325 332
243 242 239 234 232 231 232 234 231 230 231 241 253 255 262 269 263 253 255 257 260 258 254 248 250 255 257 259 264 258 253 251 258 262 268 271 267 270 272 272 277 283 280 278 282 283 281 285 288 291 292 304 303 299 300 315 307 294 293 298 292 294 299 299 298 289 284 292 293 295 304 297 295 298 300 295 298 300 302 309 311 312 315 316 320